Regional Weather Roundup
Issued by NWS Jackson, KY

Home | Current Version | Previous Version | Graphics & Text | Print | Product List | Glossary On
Versions: 1 2 3 4 5 6 7 8 9 10 11 12 13 14 15 16 17 18 19 20 21 22 23 24 25 26 27
000
ASUS43 KJKL 210410
RWRJKL

EAST KENTUCKY HOURLY WEATHER ROUNDUP
NATIONAL WEATHER SERVICE JACKSON KY
1100 PM EST MON FEB 20 2017

NOTE: "FAIR" INDICATES FEW OR NO CLOUDS BELOW 12,000 FEET WITH
NO SIGNIFICANT WEATHER AND/OR OBSTRUCTIONS TO VISIBILITY.

* THESE REPORTS ARE NOT UNDER NWS QUALITY CONTROL AND MAY NOT
  REPORT WEATHER SUCH AS PRECIPITATION AND FOG.

KYZ079-080-083-085-087-088-110-112-115-119-120-210500
...EASTERN KENTUCKY...

CITY           SKY/WX    TMP DP  RH WIND       PRES   REMARKS
JACKSON        PTCLDY    59  38  45 VRB3      30.11F
LONDON         PTCLDY    51  40  65 CALM      30.10F
SOMERSET*      PTCLDY    54  41  62 E5        30.10F
MONTICELLO*    MOCLDY    59  44  57 E8        30.10F
WILLIAMSBURG*  PTCLDY    57  41  54 SE7       30.10F
MIDDLESBORO*   CLOUDY    46  43  88 CALM      30.14S
HARLAN APT*    CLOUDY    50  37  62 CALM      30.13F
PIKE CO APT*     N/A     58  36  42 CALM      30.12F
BIG SANDY APT* CLOUDY    55  37  52 E3        30.11F
MOREHEAD APT*  CLOUDY    57  37  47 VRB5      30.12F
ASHLAND*       CLOUDY    45  41  87 CALM      30.10F
$$

KYZ035-036-041-042-044-050-067-078-099-210500
...CENTRAL KENTUCKY...

CITY           SKY/WX    TMP DP  RH WIND       PRES   REMARKS
MT STERLING*   PTCLDY    55  41  58 SE5       30.11F
FLEMING/MASON* PTCLDY    52  39  62 SE8       30.10F
DANVILLE*      CLOUDY    50  43  76 CALM      30.09F
LEXINGTON      PTCLDY    58  41  53 SE9       30.07F
FRANKFORT      CLOUDY    53  43  68 SE3       30.06F
LOUISVILLE     CLOUDY    59  42  53 SE5       30.03F
LEBANON*         N/A     63  41  45 SE8       30.06F
GLASGOW*       PTCLDY    53  46  78 E3        30.04F
BOWLING GREEN  CLOUDY    54  45  71 CALM      30.03F
$$

KYZ091>093-OHZ055-061-077-WVZ005-015-034-035-042-210500
...SOUTHERN OHIO/WEST VIRGINIA...

CITY           SKY/WX    TMP DP  RH WIND       PRES   REMARKS
COVINGTON      CLOUDY    55  40  56 SE9       30.07F
COLUMBUS       CLOUDY    53  39  59 SE6       30.11F
DAYTON         CLOUDY    49  42  77 SE9       30.09F
WILMINGTON     PTCLDY    49  40  71 SE6       30.09F
HUNTINGTON     CLOUDY    50  38  63 CALM      30.10F
CHARLESTON     MOCLDY    47  40  76 CALM      30.12F
PINEVILLE*     CLOUDY    47  34  61 MISG      30.20F
BECKLEY        PTCLDY    57  30  35 SE13      30.18R
BLUEFIELD      MOCLDY    56  29  35 S7        30.21R
LOGAN CO APT*    N/A     57  37  47 CALM      30.13F HAZE
$$

VAZ002-007-008-TNZ017-027-036-066-071-210500
...SOUTHWEST VIRGINIA/EAST TENNESSEE...

CITY           SKY/WX    TMP DP  RH WIND       PRES   REMARKS
WISE*          CLOUDY    59  28  31 CALM      30.18S
JONESVILLE*      N/A     46  39  76 CALM      30.16F
ABINGDON*      CLOUDY    52  35  50 CALM      30.17S
BRISTOL        CLOUDY    46  37  71 CALM      30.16S
MORRISTOWN*    PTCLDY    52  45  76 CALM      30.12F
SEVIERVILLE*   CLEAR     46  41  81 CALM      30.13S
KNOXVILLE      CLOUDY    54  44  69 CALM      30.11F
LAFOLLETTE*    CLEAR     48  45  87 CALM      30.15F
OAK RIDGE      PTCLDY    52  46  80 CALM      30.13F
CROSSVILLE     CLOUDY    52  44  74 CALM      30.12F
NASHVILLE      CLOUDY    62  43  49 SE8       30.04F
$$

...KEY TO REMARKS...
VSB - VISIBILITY IN MILES
WCI - WIND CHILL INDEX
HX  - HEAT INDEX

$$




USA.gov is the U.S. government's official web portal to all federal, state and local government web resources and services.